Temp
4 4 5 5 5 6 6 7 7 7 8 8 8 7 7 5 3 2 -0 1 3 -0 -2 -1 -1 2 2 1 0 -1 -1 -1 -1 -1 -0 -0 -3 -3 -4 -2 -4 -4 -5 -4 -5 -4 -5 -5 -5 -6 -8 -7 -7 -9
4 4 4 5 5 5 6 6 7 7 7 7 7 7 6 4 3 2 -1 -0 1 -1 -4 -3 -2 -2 -2 -1 -0 -2 -1 -1 -1 -2 -3 -4 -3 -6 -4 -4 -2 -4 -4 -6 -6 -4 -4 -5 -5 -8 -10 -11 -10 -11
3 3 4 4 5 5 5 6 6 7 7 7 7 7 4 2 1 2 -0 -1 1 -3 -4 -4 -3 -2 -1 -1 -1 -1 -2 -2 -2 -5 -3 -4 -3 -4 -5 -4 -6 -4 -7 -8 -6 -4 -5 -5 -5 -5 -6 -9 -8 -10
3 3 3 4 5 5 5 5 6 6 7 7 6 6 3 1 -0 1 -0 -1 0 -2 -2 -3 -3 -2 -2 -1 -0 0 -1 -2 -3 -3 -4 -5 -3 -4 -4 -5 -6 -7 -7 -8 -6 -5 -6 -6 -7 -7 -7 -8 -8 -9
3 3 3 4 5 5 5 5 6 6 7 6 6 4 2 -0 -1 -1 -0 -0 -0 -0 -2 -4 -3 -3 -2 -2 -1 -1 -1 -3 -3 -4 -5 -5 -3 -5 -7 -7 -9 -8 -8 -8 -7 -6 -11 -10 -8 -7 -11 -10 -10 -11
2 2 3 4 4 5 5 5 5 6 6 6 4 2 0 -1 -0 -0 -1 -1 -1 -2 -4 -4 -3 -3 -2 -2 -2 -2 -2 -3 -3 -4 -5 -5 -4 -7 -8 -7 -7 -9 -11 -11 -10 -12 -10 -9 -9 -9 -11 -10 -9 -10
2 2 3 4 4 5 5 5 5 6 6 5 2 1 -1 -1 -0 -1 -0 -2 -1 -1 -4 -5 -5 -4 -3 -3 -3 -3 -2 -3 -3 -5 -4 -5 -6 -9 -10 -8 -5 -6 -7 -8 -12 -13 -10 -8 -11 -9 -9 -9 -9 -10
2 2 3 3 4 5 5 5 5 5 5 3 1 -1 -1 -1 -1 -3 -3 -3 -2 -2 -2 -4 -5 -4 -4 -3 -4 -4 -4 -4 -4 -4 -5 -6 -7 -9 -9 -6 -6 -7 -7 -7 -9 -10 -10 -10 -9 -10 -9 -10 -12 -12
1 2 2 3 4 5 5 5 5 5 2 -1 -1 -2 -1 -2 -3 -4 -2 -1 0 -1 -3 -5 -5 -4 -5 -4 -4 -4 -4 -6 -4 -5 -5 -5 -6 -7 -7 -8 -7 -9 -9 -11 -8 -8 -9 -10 -10 -10 -11 -13 -14 -13
1 2 2 4 4 4 5 5 4 1 -1 -2 -1 -2 -3 -4 -3 -3 -3 -3 -3 -5 -5 -4 -5 -5 -4 -5 -5 -7 -8 -5 -8 -7 -7 -7 -7 -6 -7 -8 -7 -10 -11 -12 -13 -12 -12 -12 -11 -14 -15 -13 -13 -13
1 2 2 3 4 4 5 4 1 -1 -1 -1 -3 -4 -4 -4 -3 -3 -4 -3 -4 -5 -8 -6 -6 -6 -5 -4 -5 -7 -7 -8 -8 -6 -8 -8 -8 -6 -7 -8 -9 -9 -9 -10 -10 -11 -11 -13 -17 -18 -15 -13 -13 -13
1 2 3 3 4 4 3 1 -1 -0 -1 -2 -4 -4 -4 -4 -4 -3 -3 -5 -6 -4 -8 -6 -5 -6 -7 -6 -8 -9 -8 -9 -8 -8 -10 -9 -6 -6 -8 -9 -10 -9 -9 -10 -10 -11 -11 -12 -12 -13 -13 -13 -13 -12
1 2 2 3 4 3 2 0 -0 -2 -1 -2 -4 -4 -3 -4 -3 -3 -4 -6 -5 -6 -7 -7 -7 -7 -8 -7 -9 -8 -9 -8 -8 -11 -8 -7 -6 -7 -10 -10 -11 -9 -9 -10 -11 -11 -11 -12 -12 -12 -12 -12 -13 -13
1 2 2 3 3 3 1 -1 -2 -0 0 -2 -3 -4 -2 -4 -4 -3 -2 -3 -5 -6 -6 -6 -7 -6 -7 -8 -9 -7 -9 -10 -11 -10 -7 -9 -8 -9 -11 -11 -12 -12 -11 -11 -11 -11 -11 -12 -12 -12 -12 -13 -13 -13
1 2 2 3 3 2 -0 -2 -1 -1 -2 -2 -2 -3 -5 -6 -7 -7 -6 -6 -6 -5 -6 -7 -7 -7 -8 -10 -9 -10 -11 -10 -7 -7 -7 -10 -11 -11 -12 -13 -13 -14 -12 -12 -11 -11 -11 -12 -12 -12 -12 -13 -13 -13
1 2 3 3 2 -0 -1 -2 -1 -3 -5 -4 -6 -7 -6 -6 -6 -6 -6 -6 -6 -6 -7 -7 -7 -8 -10 -9 -9 -8 -8 -7 -6 -8 -10 -13 -12 -13 -14 -14 -11 -10 -10 -10 -10 -11 -11 -12 -12 -13 -13 -12 -12 -13
1 3 3 2 -1 -2 -2 -1 -4 -6 -5 -6 -8 -6 -5 -6 -6 -7 -6 -7 -7 -6 -5 -6 -5 -6 -9 -9 -8 -8 -8 -7 -9 -11 -12 -13 -12 -13 -14 -11 -11 -11 -11 -11 -11 -11 -12 -12 -13 -14 -14 -11 -12 -12
2 2 -0 -1 -2 -2 -4 -5 -6 -6 -8 -9 -7 -7 -7 -7 -7 -8 -8 -8 -6 -6 -6 -6 -10 -10 -7 -6 -7 -7 -10 -12 -13 -11 -12 -17 -11 -10 -10 -11 -10 -10 -10 -11 -11 -11 -12 -13 -14 -14 -12 -12 -12 -12
1 -1 -2 -2 -1 -2 -6 -7 -6 -8 -9 -8 -8 -8 -8 -9 -9 -9 -10 -10 -10 -9 -9 -9 -9 -8 -7 -8 -8 -12 -12 -11 -11 -13 -16 -11 -9 -9 -10 -10 -10 -10 -11 -11 -11 -12 -11 -12 -12 -12 -12 -12 -12 -12
-1 -2 -2 -2 -1 -5 -6 -7 -6 -7 -7 -8 -8 -8 -9 -9 -9 -9 -8 -8 -8 -8 -9 -9 -7 -8 -9 -11 -12 -12 -12 -12 -10 -12 -14 -14 -10 -10 -10 -10 -10 -10 -11 -11 -11 -11 -12 -12 -12 -12 -12 -12 -12 -12
-3 -3 -2 -1 -6 -8 -8 -8 -8 -7 -8 -9 -9 -8 -9 -8 -8 -8 -9 -9 -9 -9 -9 -9 -10 -13 -14 -12 -11 -8 -9 -8 -11 -11 -10 -11 -11 -10 -9 -10 -10 -10 -11 -11 -12 -11 -10 -11 -11 -11 -11 -12 -12 -13
-3 -1 -4 -5 -8 -9 -9 -10 -8 -9 -9 -9 -8 -8 -9 -8 -9 -9 -11 -10 -10 -9 -9 -11 -13 -14 -14 -13 -9 -7 -7 -6 -5 -5 -6 -7 -11 -11 -11 -10 -10 -11 -10 -10 -10 -11 -11 -11 -11 -12 -12 -12 -13 -13
-1 -1 -5 -6 -7 -8 -10 -10 -8 -8 -8 -9 -9 -8 -9 -9 -12 -13 -11 -9 -9 -10 -10 -11 -11 -10 -10 -10 -9 -8 -6 -6 -8 -8 -7 -8 -8 -8 -8 -9 -9 -10 -11 -10 -10 -10 -11 -12 -12 -12 -12 -12 -13 -13
-1 -6 -6 -7 -8 -10 -11 -9 -9 -8 -9 -8 -7 -9 -10 -11 -14 -14 -9 -10 -10 -12 -12 -13 -12 -13 -12 -11 -13 -10 -8 -7 -8 -8 -8 -8 -10 -10 -9 -9 -10 -10 -10 -11 -11 -12 -12 -13 -12 -13 -13 -13 -13 -14
-2 -7 -8 -12 -11 -8 -7 -7 -7 -6 -7 -7 -8 -11 -12 -14 -12 -11 -9 -10 -11 -12 -12 -13 -12 -13 -11 -15 -13 -9 -8 -7 -9 -11 -8 -8 -9 -11 -11 -11 -11 -11 -11 -12 -12 -13 -13 -13 -14 -14 -14 -14 -14 -13
-8 -10 -7 -10 -10 -7 -7 -9 -8 -8 -8 -8 -10 -14 -15 -12 -11 -8 -9 -11 -11 -14 -12 -12 -11 -12 -13 -10 -12 -11 -9 -8 -8 -8 -9 -9 -9 -9 -11 -13 -13 -12 -12 -12 -13 -13 -13 -14 -14 -14 -14 -14 -13 -14
-9 -10 -11 -9 -8 -7 -8 -8 -8 -8 -9 -9 -12 -14 -12 -10 -8 -7 -13 -14 -13 -12 -10 -10 -9 -9 -10 -11 -9 -8 -8 -9 -8 -8 -8 -10 -11 -10 -10 -11 -12 -11 -12 -13 -13 -13 -14 -14 -14 -14 -14 -14 -14 -14
-10 -9 -7 -8 -8 -9 -8 -9 -8 -7 -8 -11 -11 -12 -10 -7 -5 -12 -15 -15 -14 -13 -11 -10 -8 -7 -7 -8 -8 -9 -10 -10 -10 -11 -11 -12 -11 -11 -11 -11 -12 -13 -13 -14 -14 -14 -14 -14 -14 -14 -14 -14 -14 -14
-8 -8 -8 -10 -11 -13 -13 -11 -10 -12 -13 -11 -10 -9 -10 -12 -15 -16 -15 -15 -14 -12 -12 -12 -12 -9 -10 -10 -10 -10 -10 -10 -11 -17 -17 -17 -14 -12 -12 -12 -13 -13 -13 -14 -14 -14 -13 -13 -13 -13 -13 -14 -14 -14
-11 -13 -12 -14 -12 -11 -15 -17 -16 -17 -16 -16 -15 -14 -13 -14 -15 -16 -15 -15 -14 -13 -12 -12 -12 -10 -14 -13 -13 -13 -12 -11 -11 -9 -16 -18 -11 -10 -11 -12 -13 -13 -14 -14 -14 -14 -14 -13 -13 -13 -14 -14 -14 -15
-13 -14 -15 -15 -16 -17 -19 -20 -19 -18 -18 -18 -18 -15 -13 -16 -15 -15 -15 -14 -13 -12 -12 -13 -12 -11 -11 -12 -12 -14 -14 -12 -11 -10 -9 -9 -9 -10 -11 -12 -13 -13 -14 -14 -14 -14 -14 -14 -14 -14 -14 -14 -15 -15
-15 -15 -12 -13 -15 -20 -22 -21 -19 -17 -17 -15 -15 -17 -16 -15 -12 -17 -14 -14 -13 -13 -12 -11 -11 -11 -10 -10 -10 -10 -10 -9 -10 -10 -10 -10 -11 -12 -12 -13 -13 -13 -14 -14 -14 -14 -14 -14 -15 -15 -15 -15 -15 -15
-19 -19 -19 -18 -17 -16 -18 -17 -15 -14 -14 -14 -15 -18 -19 -16 -10 -15 -15 -14 -12 -11 -11 -10 -11 -10 -10 -11 -11 -10 -9 -9 -10 -11 -11 -12 -12 -12 -13 -13 -13 -14 -14 -14 -14 -14 -14 -15 -15 -15 -15 -15 -15 -15
Height
811 808 806 803 803 802 803 803 804 803 804 802 801 801 793 799 796 805 814 815 822 833 842 843 840 837 837 841 850 855 861 863 866 867 865 863 879 875 883 872 881 886 893 892 895 890 890 876 880 886 882 877 877 881
803 802 800 798 797 794 795 796 796 796 796 795 795 794 789 792 788 791 810 815 817 825 834 838 842 841 840 841 843 848 848 848 851 858 868 871 872 888 880 882 866 880 875 886 885 873 868 871 871 873 876 879 878 879
797 795 793 791 790 789 788 788 788 788 790 789 788 786 785 786 786 789 796 807 815 829 835 836 843 840 837 841 841 844 846 843 845 848 857 865 870 870 879 877 877 869 875 883 878 868 869 870 872 871 872 874 873 873
789 788 787 785 783 782 781 780 781 781 782 782 781 781 781 781 785 785 785 798 810 820 827 837 838 838 838 839 839 838 837 840 842 848 857 866 862 862 868 869 872 873 874 878 874 867 871 871 873 873 872 872 871 871
783 782 779 778 777 776 775 774 774 774 775 775 775 776 779 781 784 787 783 792 805 812 824 836 839 839 840 841 839 839 839 841 847 855 859 864 857 864 871 873 878 866 867 873 873 864 874 873 870 871 872 871 870 869
777 775 772 772 770 769 768 769 768 768 769 769 769 773 775 777 781 789 793 791 798 809 820 834 840 840 842 843 843 842 844 844 847 854 857 858 859 868 878 872 855 857 857 857 865 865 867 867 867 869 870 869 867 866
770 768 767 764 763 762 761 762 762 762 762 762 763 772 776 777 781 785 785 781 786 805 819 836 840 843 842 844 846 845 846 849 848 852 855 858 861 870 879 870 847 850 851 854 858 863 867 864 867 866 866 865 865 864
763 761 760 757 756 755 755 755 755 755 755 758 763 772 776 782 784 788 791 787 787 800 813 829 838 841 843 845 848 846 848 850 852 851 855 860 865 869 870 849 847 847 851 854 856 858 860 862 863 863 863 862 862 862
756 755 753 751 749 748 748 749 750 750 749 757 764 771 780 785 788 793 796 794 792 798 811 824 828 833 840 843 846 847 847 858 853 852 855 859 860 859 844 846 845 847 850 853 853 856 858 859 859 860 860 860 861 860
749 747 746 743 742 741 742 744 743 744 751 758 766 772 784 790 791 796 801 798 799 800 806 815 823 831 834 840 848 853 854 852 865 858 858 861 852 835 834 835 836 841 845 849 857 859 858 858 857 858 858 858 858 857
741 741 739 737 736 735 737 737 737 744 753 757 766 779 786 791 795 794 797 798 802 808 810 814 820 825 832 834 845 852 852 858 863 857 863 861 851 831 828 833 835 838 841 844 847 849 851 852 855 855 854 854 854 853
735 734 732 730 729 730 731 734 735 741 748 754 761 775 786 791 794 794 794 803 804 795 812 810 816 821 832 832 844 854 855 859 862 857 871 860 831 823 828 833 836 837 839 842 845 847 849 850 850 851 851 851 851 850
729 728 725 724 723 724 726 731 736 740 745 753 764 777 780 791 790 785 792 798 793 799 804 807 815 822 831 833 845 848 856 858 854 870 854 835 821 822 827 830 834 836 838 841 843 845 846 847 847 848 848 848 847 846
722 721 719 718 716 718 724 732 735 738 742 750 760 777 770 778 778 771 770 772 785 789 795 800 809 817 827 834 840 841 856 860 870 867 839 825 818 821 825 828 831 834 835 838 840 842 843 844 844 845 845 845 844 842
715 713 712 710 710 715 724 734 734 734 741 751 756 765 775 774 779 782 781 782 786 789 794 801 811 816 826 836 836 849 861 860 839 828 818 814 814 819 824 826 828 830 833 835 837 838 839 841 842 842 842 841 840 839
709 708 702 702 707 715 726 731 733 738 750 756 764 776 775 773 777 779 782 785 788 791 792 797 807 817 827 825 832 832 838 833 813 812 808 811 814 817 821 822 825 827 830 832 834 835 837 838 839 839 838 837 836 835
704 698 695 700 711 720 728 734 738 750 758 764 775 770 771 770 772 779 783 786 789 790 791 795 798 807 821 825 825 820 819 804 803 805 805 806 810 815 817 820 823 825 828 830 831 833 834 835 836 836 834 833 833 832
698 691 693 699 707 723 732 740 749 760 770 774 771 774 775 774 775 781 785 786 788 789 790 792 802 813 806 806 808 797 802 802 802 801 803 806 808 812 815 818 821 824 826 827 829 831 832 832 833 832 831 831 830 830
690 693 698 704 711 721 740 752 755 768 776 776 777 778 780 781 783 783 786 789 791 791 793 796 801 799 793 789 789 796 798 797 801 805 806 807 808 811 814 817 820 822 824 825 827 828 828 829 829 829 828 828 827 827
696 704 709 713 718 729 746 758 759 765 772 776 778 781 783 785 787 788 790 792 792 792 794 795 787 783 784 783 783 785 788 791 795 805 809 808 809 811 813 815 818 820 822 824 825 826 826 826 826 825 825 825 825 824
700 709 713 716 727 737 752 761 766 771 775 779 781 781 785 787 788 791 793 793 794 792 789 784 782 780 779 779 779 780 784 787 792 795 800 806 807 809 811 814 817 819 820 821 822 822 822 822 822 822 822 822 822 822
705 712 717 725 737 749 760 765 768 774 778 781 781 783 787 788 791 794 797 796 791 779 777 776 777 778 781 781 780 781 783 787 790 793 796 799 805 808 810 811 814 816 817 817 818 819 819 820 820 820 820 820 820 820
706 714 723 732 744 755 771 769 769 773 778 782 782 783 788 790 796 800 798 786 776 767 767 770 772 774 777 779 782 783 785 787 791 794 797 800 803 805 807 809 811 812 814 814 816 817 817 818 818 817 818 819 819 819
712 722 733 742 750 767 769 769 769 772 777 777 775 784 790 795 800 802 786 775 764 763 765 767 770 775 779 781 782 782 785 788 791 795 797 800 803 805 806 807 809 810 812 812 814 815 815 815 816 816 816 817 817 817
718 740 743 760 758 759 762 765 765 764 768 771 779 788 793 799 796 794 779 764 758 761 762 765 768 770 773 778 781 782 785 786 789 792 796 799 802 804 805 806 808 809 810 811 812 812 813 814 814 815 815 815 815 815
739 748 743 751 757 750 755 765 761 767 768 774 780 793 796 793 790 772 763 754 753 755 758 760 763 769 772 772 777 780 781 785 789 791 794 796 799 801 802 804 806 808 808 809 810 811 812 812 813 813 814 814 814 814
746 750 747 744 744 746 754 757 757 760 766 769 780 790 785 782 768 751 753 752 751 751 752 755 760 763 766 770 773 777 780 785 788 790 792 795 798 800 801 803 804 806 806 808 809 810 810 811 812 813 813 813 813 813
740 740 740 744 744 747 750 753 752 753 757 764 768 777 768 757 746 756 756 754 753 752 753 758 762 766 768 770 773 777 782 785 788 791 794 797 798 799 800 802 803 804 806 807 809 809 809 810 810 811 811 811 811 811
737 738 740 751 754 759 761 758 756 761 763 760 761 757 757 757 758 757 756 756 756 757 756 759 763 766 769 773 777 781 782 784 787 793 796 797 797 798 799 801 802 804 805 807 808 809 809 809 809 809 810 810 810 809
744 746 750 759 757 758 766 768 767 767 765 764 764 761 759 758 758 757 757 757 758 759 760 761 763 765 769 773 778 781 783 785 787 789 791 793 793 795 797 799 801 803 804 806 807 808 808 808 808 808 808 809 808 808
747 749 758 763 767 769 769 769 768 767 766 765 765 763 760 759 757 757 758 759 760 761 762 765 767 769 771 774 776 779 782 784 786 788 788 790 792 794 796 798 800 802 804 806 807 807 807 807 807 807 807 807 807 807
753 756 752 760 766 771 771 772 770 768 766 764 763 764 762 760 759 758 757 759 761 762 764 765 767 769 772 774 776 777 778 780 783 787 788 790 792 794 797 799 800 802 803 804 805 805 805 805 805 805 806 806 806 806
761 762 765 767 769 768 769 767 766 764 764 764 766 769 769 765 756 755 755 757 761 761 763 766 768 770 772 774 776 778 779 781 784 786 788 791 793 795 797 799 800 800 801 802 802 803 803 803 804 804 804 804 804 804
Wind_Speed
27 27 27 26 27 27 28 29 28 26 25 22 18 22 19 19 18 19 8 15 13 3 0 5 7 1 2 4 4 5 4 2 2 3 3 2 2 4 2 3 5 6 5 4 3 3 7 6 3 5 4 2 2 2
29 28 28 28 28 27 28 28 28 27 25 24 21 28 23 21 20 23 7 13 15 6 3 6 4 4 3 3 4 3 2 3 5 3 1 3 1 1 4 3 0 2 5 4 7 4 3 5 4 3 4 5 3 2
29 30 29 29 28 28 28 28 27 27 26 24 21 31 26 26 26 24 22 18 11 3 2 2 2 3 1 1 1 4 2 4 3 2 3 2 2 3 3 4 2 2 3 2 3 1 4 5 2 3 2 2 2 1
29 30 30 30 30 29 28 28 27 26 26 27 23 30 28 28 26 30 25 21 12 6 3 2 2 1 3 2 2 2 10 7 8 3 2 2 2 2 2 2 3 4 5 5 3 3 4 2 2 2 1 1 2 5
29 29 29 30 30 29 28 28 27 26 24 25 26 28 30 27 24 23 25 24 16 2 3 3 3 3 4 3 8 11 18 5 3 2 2 2 2 2 1 1 3 5 6 4 5 4 5 4 3 2 3 1 2 2
30 29 31 31 29 28 27 27 26 25 23 23 32 32 33 31 29 19 2 16 19 10 4 3 2 2 3 8 12 11 7 3 2 2 2 2 1 3 2 3 4 4 3 5 5 4 5 4 4 2 2 3 5 7
30 29 30 30 29 28 27 25 25 24 24 28 35 31 29 26 27 4 2 18 29 12 3 4 3 1 1 3 3 4 5 1 2 2 1 2 1 3 2 3 3 6 5 4 4 5 2 4 4 3 5 6 6 8
29 28 28 28 27 25 25 22 22 21 20 36 36 31 24 22 16 8 14 22 23 10 5 3 3 3 4 2 2 1 2 1 2 2 1 2 1 1 3 6 4 5 6 5 7 6 5 4 4 6 5 3 3 5
29 28 27 27 26 23 20 20 18 13 41 40 37 32 18 5 4 7 11 13 11 4 4 3 6 5 5 1 2 1 1 1 1 2 2 2 2 4 6 6 6 6 7 6 5 5 5 5 6 3 0 2 2 4
28 28 27 26 25 21 19 20 11 46 45 43 26 6 3 5 25 17 3 1 2 2 2 2 3 3 3 2 1 2 1 2 2 2 2 2 4 5 6 7 8 8 8 7 4 3 2 4 4 2 3 4 7 11
26 27 26 25 23 18 18 13 49 52 39 10 4 3 13 16 3 2 2 2 2 1 1 2 3 5 1 3 3 1 2 1 2 2 3 2 3 4 6 6 5 12 15 12 9 4 6 5 5 4 6 9 10 12
26 26 25 24 22 17 18 41 53 32 15 13 20 19 9 2 1 3 3 1 3 4 2 4 4 3 2 2 3 1 3 2 3 2 3 3 4 4 7 6 6 13 12 10 11 10 9 9 9 9 10 12 12 11
25 25 25 23 19 15 38 50 36 38 44 16 6 3 4 1 2 6 8 4 3 5 5 4 4 3 2 2 3 2 3 3 2 2 3 4 2 4 5 5 5 11 12 10 10 10 8 9 7 9 12 12 12 13
26 26 24 24 18 29 50 41 44 34 6 3 5 5 6 4 4 3 2 3 3 5 9 6 5 3 2 2 3 4 1 3 1 2 5 3 6 7 6 4 5 6 12 12 12 11 10 9 10 10 12 11 11 13
25 25 28 21 15 48 46 44 27 10 4 3 4 4 3 3 3 2 2 3 3 8 6 5 3 2 2 4 2 4 3 3 5 5 3 3 6 8 7 5 6 5 12 13 11 11 11 10 10 12 11 9 9 12
23 26 26 13 47 51 46 28 7 5 4 3 4 3 2 2 2 2 3 6 3 6 2 3 3 3 2 5 4 6 7 6 4 3 3 4 6 6 5 7 14 14 13 11 11 10 9 10 11 11 11 10 9 8
22 11 14 47 49 38 26 10 5 5 3 3 2 2 1 3 3 3 3 3 6 2 3 2 4 2 4 3 2 4 5 3 3 2 2 5 8 7 10 13 13 12 12 10 9 10 11 8 9 10 12 8 6 7
7 39 53 56 48 31 8 8 4 3 5 2 2 2 2 2 5 3 2 3 2 1 2 3 4 3 5 7 3 3 3 1 0 3 4 3 8 13 15 14 13 12 10 10 11 10 10 10 11 13 10 8 6 8
39 50 50 46 33 11 3 4 4 4 2 1 2 2 2 2 3 6 3 4 2 1 4 1 3 3 3 3 3 2 2 3 3 2 2 7 13 14 13 11 9 9 10 11 11 13 13 12 12 10 9 10 9 8
42 42 33 25 16 6 4 3 4 3 2 2 2 2 2 2 1 3 3 1 0 1 1 2 4 3 3 3 3 3 3 4 5 3 1 1 10 13 13 12 12 10 9 9 10 9 11 11 11 11 9 8 9 7
34 26 27 17 8 11 4 2 3 2 2 2 2 2 2 1 2 1 1 1 0 2 2 3 3 2 1 1 1 9 13 14 4 4 4 3 12 14 12 11 10 9 10 9 9 10 10 10 8 7 7 8 8 6
14 24 9 8 6 4 4 7 3 2 2 2 2 2 2 2 2 2 0 0 3 3 3 3 2 3 2 1 3 11 20 14 11 11 10 15 4 6 8 14 14 14 14 13 11 12 12 9 7 7 7 6 4 6
22 13 7 5 5 4 1 1 2 1 3 3 1 3 1 2 1 1 2 3 3 5 6 3 5 5 8 9 11 12 16 16 12 11 12 9 9 11 10 11 13 13 12 12 10 10 9 7 7 4 5 5 5 7
11 6 4 3 4 3 1 2 1 3 2 2 2 3 2 2 1 1 3 3 3 3 4 6 12 5 5 7 2 8 14 14 13 11 11 11 10 9 8 8 7 8 8 7 6 7 7 6 4 5 4 4 5 5
5 3 4 4 2 4 3 4 3 2 2 2 3 2 2 2 2 3 3 3 3 3 4 9 7 2 3 2 3 10 14 18 17 9 12 11 9 8 7 6 5 5 6 7 8 7 6 5 4 4 5 4 5 5
5 3 2 4 2 3 4 4 4 4 3 3 2 2 2 3 2 6 3 3 3 3 6 8 7 4 1 7 5 9 15 15 13 9 11 13 13 10 11 8 5 6 7 7 7 7 6 5 5 4 4 4 4 4
4 2 1 1 2 4 3 2 2 3 5 6 5 5 3 3 6 4 1 3 1 1 14 20 18 12 9 13 13 11 14 16 9 8 9 12 10 8 6 7 9 4 6 6 6 6 6 6 5 5 4 3 4 5
2 3 5 3 3 2 4 2 4 6 3 3 6 5 6 6 3 1 1 4 2 7 16 17 16 13 17 18 18 20 18 15 15 14 13 10 8 6 5 5 4 5 6 6 4 4 3 4 5 6 5 4 4 5
2 2 3 3 3 3 2 2 3 1 2 3 3 3 3 1 2 2 1 3 9 16 18 19 15 16 20 18 18 13 19 22 19 5 4 2 3 7 8 8 8 7 5 5 5 4 2 3 6 7 5 3 4 5
1 1 3 2 3 2 1 1 0 1 1 0 1 2 1 1 2 1 3 7 9 11 14 18 23 22 20 21 17 13 19 18 7 7 6 5 8 8 11 9 8 7 5 4 4 5 4 4 1 8 5 2 4 3
1 2 4 3 1 1 1 2 3 2 1 1 1 1 1 2 2 2 6 7 9 13 17 18 13 14 20 17 20 17 13 18 13 7 6 8 9 9 9 9 8 9 7 4 2 3 4 3 3 4 4 3 2 4
2 2 3 3 1 2 2 1 1 0 1 0 2 2 2 2 1 2 9 12 13 14 12 18 15 15 14 11 11 9 8 14 18 12 10 10 9 9 9 8 8 8 6 4 4 4 4 4 4 4 4 4 4 4
2 3 3 3 2 1 1 2 2 1 2 1 2 1 1 1 3 2 10 16 12 17 13 14 11 7 11 10 11 9 8 13 15 13 12 10 8 9 8 6 4 5 7 7 6 6 6 5 4 3 3 4 4 4
Wind_Direction
284 282 280 282 282 279 277 277 278 285 288 284 279 252 241 227 197 183 156 177 162 149 315 341 357 59 125 140 162 153 100 236 139 175 172 214 153 219 108 196 178 166 164 194 180 236 267 159 101 173 212 190 193 247
285 286 284 282 281 283 277 278 273 278 282 282 279 233 222 213 194 168 129 153 158 116 120 58 56 36 344 320 130 169 185 155 168 127 184 112 161 116 164 248 219 256 189 186 175 217 181 187 205 207 162 168 231 196
286 287 288 284 284 280 281 276 276 272 276 280 264 234 202 178 178 177 144 146 138 98 66 107 235 2 92 340 167 130 258 156 118 166 142 157 192 128 175 239 164 225 149 175 48 163 175 183 127 149 134 159 253 224
284 285 286 286 284 284 282 279 276 272 271 273 238 232 180 169 170 178 152 159 149 134 123 129 179 29 15 321 211 195 132 101 110 81 99 139 175 149 218 196 178 196 129 177 256 252 71 101 124 149 322 40 356 335
283 285 285 285 282 281 281 278 275 272 270 275 222 187 170 163 160 171 153 156 165 160 121 114 103 31 38 115 119 129 124 99 93 72 94 193 121 103 1 62 251 186 186 155 222 185 159 220 175 294 159 200 287 266
279 282 284 285 282 277 276 275 273 270 268 259 189 172 165 159 169 141 143 174 152 124 106 127 65 30 80 105 93 90 83 70 90 124 168 79 85 108 151 224 248 208 162 154 196 175 184 230 261 105 176 258 286 288
278 283 283 287 280 275 274 272 271 269 261 214 171 163 155 152 155 82 282 157 148 144 101 108 130 133 98 77 36 48 44 63 116 111 94 131 162 113 167 228 233 181 162 157 136 109 349 173 204 281 293 292 303 313
278 283 285 288 281 276 273 271 269 263 257 163 150 146 141 138 112 69 103 137 139 117 101 133 107 133 182 159 114 42 123 65 359 129 65 116 73 108 251 234 192 162 156 167 176 193 189 196 243 259 273 294 338 311
278 283 285 287 283 273 268 268 260 240 145 137 138 130 105 58 82 129 114 116 124 110 142 144 150 163 149 114 121 93 91 97 261 123 140 141 214 227 221 195 184 179 177 198 170 180 207 220 248 242 169 329 287 291
278 281 286 286 281 269 262 252 239 144 142 134 125 87 90 92 119 113 78 69 36 12 61 106 114 133 147 134 85 92 18 154 148 221 84 177 257 233 212 206 191 178 168 137 108 270 243 242 213 221 228 270 275 287
279 279 286 284 284 260 254 233 146 141 137 141 112 87 120 132 113 56 97 154 150 177 114 129 122 132 196 133 140 223 163 178 124 213 149 249 264 236 164 159 162 165 172 187 197 183 189 185 196 224 274 281 286 292
278 279 285 285 282 254 186 163 151 153 157 140 113 111 123 121 83 135 168 78 210 203 158 123 126 111 133 110 106 246 127 60 197 126 87 256 247 189 158 169 177 175 175 190 205 210 214 222 238 249 268 276 282 291
276 278 285 288 272 214 174 169 160 140 125 110 83 98 145 158 177 192 186 233 170 171 167 163 122 114 112 89 81 120 109 173 71 77 230 226 226 165 170 156 159 183 189 196 205 218 226 238 246 252 267 281 289 293
274 278 281 287 259 188 171 158 149 141 103 98 140 145 199 176 231 185 200 118 100 131 138 116 99 120 147 97 144 110 76 83 82 239 235 239 201 186 173 163 137 188 196 204 213 216 225 240 256 261 268 281 289 293
273 278 283 284 231 169 162 157 162 127 78 104 120 186 197 112 81 84 78 93 107 142 130 109 94 123 121 104 88 110 69 220 214 228 224 221 183 161 170 169 176 181 198 208 211 215 234 248 256 271 277 280 287 299
277 284 280 247 164 159 154 164 122 76 60 68 68 80 103 84 101 78 97 125 130 153 84 85 125 104 128 127 126 198 145 218 229 212 214 135 156 160 169 178 197 203 202 208 214 229 243 245 254 271 287 293 301 300
282 260 226 151 144 143 146 138 66 52 65 65 48 25 84 61 116 123 141 151 149 157 157 143 123 149 106 91 202 191 204 215 199 204 165 159 164 178 178 186 191 194 201 208 218 228 242 255 258 265 280 311 311 316
256 143 145 145 143 129 74 47 78 72 64 6 101 66 30 24 104 99 107 129 139 181 152 173 124 144 174 168 218 218 194 237 165 148 154 155 157 175 181 186 190 197 208 220 230 240 243 243 248 261 278 296 300 313
163 151 147 146 142 108 85 53 48 93 84 84 80 51 59 64 44 82 81 76 51 106 115 66 109 190 213 211 188 186 172 174 153 170 147 158 166 170 178 177 183 200 215 222 228 237 247 252 257 272 278 280 283 303
140 137 141 143 137 85 87 53 73 90 106 99 70 61 54 55 71 101 97 114 163 116 79 194 219 214 188 224 185 163 160 141 127 95 34 222 182 180 181 186 200 212 219 229 239 246 253 259 260 262 265 268 269 288
120 126 132 122 61 64 77 83 65 69 89 81 102 61 73 83 82 125 139 320 344 218 245 214 224 237 333 224 126 144 145 148 163 152 170 163 192 194 192 203 207 208 209 217 228 248 258 256 279 269 251 266 286 294
130 139 94 62 82 70 76 23 94 91 75 114 133 119 115 119 138 148 293 258 238 236 201 186 202 146 135 155 148 167 161 144 133 123 129 136 127 165 199 209 199 215 222 231 239 251 263 269 269 263 269 280 268 293
119 115 63 64 83 55 52 346 108 132 126 160 157 106 108 137 88 2 230 229 253 228 179 150 149 140 138 138 144 146 156 153 142 144 145 153 179 186 194 200 212 222 233 245 245 255 257 266 260 270 239 230 275 306
103 60 63 70 75 117 121 71 87 101 112 163 124 125 170 139 134 102 255 240 233 150 155 156 141 102 89 125 147 165 169 169 160 159 165 166 169 189 198 202 214 230 244 256 241 240 252 252 258 246 226 259 289 306
87 355 89 45 28 125 136 154 150 145 120 136 120 165 186 159 175 228 236 258 187 182 166 159 161 137 142 120 149 174 177 177 172 163 178 192 186 164 170 178 196 216 227 233 230 229 233 237 245 242 250 267 288 304
85 293 110 157 164 131 157 131 162 148 130 143 165 102 147 154 177 238 225 223 191 167 175 176 167 149 152 167 150 168 184 189 190 170 186 197 204 196 182 169 184 224 228 228 220 218 224 225 230 234 256 278 316 358
112 218 296 257 121 111 96 71 82 136 168 177 172 167 153 189 233 242 327 14 325 174 179 177 177 161 151 145 147 153 164 170 176 182 170 175 186 189 190 189 207 221 203 202 212 216 213 210 220 232 252 262 295 317
138 170 140 177 86 22 135 148 163 192 178 158 136 182 186 204 251 313 306 343 24 143 155 165 174 172 164 151 147 144 143 149 140 137 139 146 161 171 180 186 162 157 175 193 214 218 222 230 234 235 241 257 296 313
76 35 96 68 63 44 65 165 192 63 7 165 174 209 240 319 324 316 326 150 147 141 124 124 124 141 141 143 151 157 160 157 144 121 141 177 171 195 192 189 189 196 199 190 194 237 240 228 256 247 222 252 299 312
178 27 91 69 108 202 224 320 257 284 284 286 299 291 268 282 332 323 153 154 164 163 151 154 148 150 147 154 158 160 174 175 185 178 159 186 200 177 179 177 177 181 184 186 201 217 225 247 245 141 175 259 310 323
15 73 73 58 113 259 253 310 298 286 331 311 280 207 259 299 317 162 163 164 168 164 153 150 152 166 162 168 169 163 184 194 190 172 143 141 146 154 161 164 168 165 161 167 212 237 234 234 213 218 244 270 296 300
32 82 127 107 254 288 17 73 273 220 298 81 329 343 340 29 297 255 195 180 169 170 177 176 167 177 184 183 179 180 187 190 186 178 162 150 145 149 155 162 174 186 206 243 280 266 253 252 247 252 265 278 288 298
58 58 58 99 84 305 250 111 13 17 28 28 338 326 277 203 213 239 183 190 200 192 178 176 174 159 181 179 180 176 166 163 163 160 155 149 146 153 155 166 202 239 254 265 257 246 250 260 270 276 278 280 283 286